Location: Sternwarte ZA, Rosenfeld-Brittheim
(48.2889°N, 8.6789°E)
Time: 06:14:51
(UTC+02:00)

ISS - Pass Details

Date: 18 July 2018
Orbit: 402 x 408 km, 51.6° (Epoch: 21 July)

Event Time Altitude Azimuth Distance (km) Brightness Sun altitude
Exits shadow 00:50:15 53° 71° (ENE) 506 -3.4 -20.0°
Drops below altitude 10° 00:52:52 10° 68° (ENE) 1,471 -0.9 -20.1°
Sets 00:54:58 0° 68° (ENE) 2,334 0.2 -20.2°
